| time (UTC) | temp C | wind direction | speed KPH | gust KPH | rain 1hr cm | rain 24hr cm | rain mn cm | humidity % | barometer mb |
| 20260508052139 | 7 | 40 | 11.3 | 0.0 | 0.00 | 0.00 | 0.00 | 93 | |
| 20260508042342 | 7 | 50 | 8.0 | 0.0 | 0.00 | 0.00 | 0.00 | 93 | |
| 20260508032140 | 7 | 70 | 11.3 | 0.0 | 0.00 | 0.00 | 0.00 | 93 | |
| 20260508022122 | 7 | 300 | 11.3 | 0.0 | 0.00 | 0.00 | 0.00 | 93 | |
| 20260508012239 | 7 | 50 | 8.0 | 0.0 | 0.00 | 0.00 | 0.00 | 93 | |
| 20260508002139 | 7 | 30 | 14.5 | 0.0 | 0.00 | 0.00 | 0.00 | 93 | |
| 20260507232139 | 7 | 30 | 19.3 | 0.0 | 0.00 | 0.00 | 0.00 | 93 | |
| 20260507222440 | 7 | 40 | 19.3 | 0.0 | 0.00 | 0.00 | 0.00 | 99 | |
| 20260507212141 | 8 | 60 | 14.5 | 0.0 | 0.00 | 0.00 | 0.00 | 93 | |
| 20260507202141 | 10 | 20 | 14.5 | 0.0 | 0.00 | 0.00 | 0.00 | 93 | |
| 20260507192243 | 10 | 40 | 19.3 | 0.0 | 0.00 | 0.00 | 0.00 | 93 | |
| 20260507182140 | 11 | 40 | 8.0 | 0.0 | 0.00 | 0.00 | 0.00 | 81 | |
| 20260507172140 | 12 | 360 | 8.0 | 0.0 | 0.00 | 0.00 | 0.00 | 76 | |
| 20260507162441 | 13 | 240 | 8.0 | 0.0 | 0.00 | 0.00 | 0.00 | 67 | |
| 20260507152141 | 15 | 190 | 14.5 | 0.0 | 0.00 | 0.00 | 0.00 | 54 | |
| 20260507142141 | 16 | 170 | 14.5 | 0.0 | 0.00 | 0.00 | 0.00 | 55 | |
| 20260507132242 | 15 | 230 | 19.3 | 0.0 | 0.00 | 0.00 | 0.00 | 58 | |
| 20260507122140 | 15 | 210 | 14.5 | 0.0 | 0.00 | 0.00 | 0.00 | 58 | |
| 20260507112156 | 15 | 240 | 19.3 | 0.0 | 0.00 | 0.00 | 0.00 | 58 | |
| 20260507102340 | 13 | 250 | 14.5 | 0.0 | 0.00 | 0.00 | 0.00 | 67 | |
| 20260507092140 | 13 | 260 | 14.5 | 0.0 | 0.00 | 0.00 | 0.00 | 71 | |
| 20260507082139 | 12 | 240 | 14.5 | 0.0 | 0.00 | 0.00 | 0.00 | 76 | |
| 20260507072140 | 12 | 240 | 14.5 | 0.0 | 0.00 | 0.00 | 0.00 | 81 | |
| 20260507062139 | 10 | 240 | 14.5 | 0.0 | 0.00 | 0.00 | 0.00 | 93 |